Time,TemperatureF,DewpointF,PressureIn,WindDirection,WindDirectionDegrees,WindSpeedMPH,WindSpeedGustMPH,Humidity,HourlyPrecipIn,Conditions,Clouds,dailyrainin,SolarRadiationWatts/m^2,SoftwareType,DateUTC
2013-04-02 00:02:00,45.0,7.0,-100.00,WSW,251,6.0,9.0,21,0.00,,,0.00,0.000000,,2013-04-02 06:02:00,
2013-04-02 00:32:00,44.0,9.0,-100.00,West,260,7.0,10.0,23,0.00,,,0.00,0.000000,,2013-04-02 06:32:00,
2013-04-02 00:42:00,44.0,9.0,-100.00,West,260,7.0,10.0,23,0.00,,,0.00,0.000000,,2013-04-02 06:42:00,
2013-04-02 00:52:00,44.0,9.0,-100.00,West,260,7.0,10.0,23,0.00,,,0.00,0.000000,,2013-04-02 06:52:00,
2013-04-02 01:02:00,44.0,9.0,-100.00,West,260,7.0,10.0,23,0.00,,,0.00,0.000000,,2013-04-02 07:02:00,
2013-04-02 02:42:00,39.0,5.0,-100.00,West,279,4.0,12.0,24,-99.99,,,0.00,0.000000,,2013-04-02 08:42:00,
2013-04-02 02:52:00,39.0,5.0,-100.00,West,279,4.0,12.0,24,-99.99,,,0.00,0.000000,,2013-04-02 08:52:00,
2013-04-02 03:01:00,39.0,5.0,-100.00,West,279,4.0,12.0,24,-99.99,,,0.00,0.000000,,2013-04-02 09:01:00,
2013-04-02 03:33:00,39.0,8.0,-100.00,WNW,292,5.0,8.0,27,0.00,,,0.00,0.000000,,2013-04-02 09:33:00,
2013-04-02 03:43:00,39.0,8.0,-100.00,WNW,292,5.0,8.0,27,0.00,,,0.00,0.000000,,2013-04-02 09:43:00,
2013-04-02 03:52:00,39.0,8.0,-100.00,WNW,292,5.0,8.0,27,0.00,,,0.00,0.000000,,2013-04-02 09:52:00,
2013-04-02 04:03:00,39.0,8.0,-100.00,WNW,292,5.0,8.0,27,0.00,,,0.00,0.000000,,2013-04-02 10:03:00,
2013-04-02 04:33:00,37.0,10.0,-100.00,West,259,5.0,7.0,32,-99.99,,,0.00,0.000000,,2013-04-02 10:33:00,
2013-04-02 04:42:00,37.0,10.0,-100.00,West,259,5.0,7.0,32,-99.99,,,0.00,0.000000,,2013-04-02 10:42:00,
2013-04-02 04:52:00,37.0,10.0,-100.00,West,259,5.0,7.0,32,-99.99,,,0.00,0.000000,,2013-04-02 10:52:00,
2013-04-02 05:02:00,37.0,10.0,-100.00,West,259,5.0,7.0,32,-99.99,,,0.00,0.000000,,2013-04-02 11:02:00,
2013-04-02 05:33:00,37.0,11.0,-100.00,WSW,246,6.0,9.0,33,-99.99,,,0.00,0.000000,,2013-04-02 11:33:00,
2013-04-02 05:43:00,37.0,11.0,-100.00,WSW,246,6.0,9.0,33,-99.99,,,0.00,0.000000,,2013-04-02 11:43:00,
2013-04-02 05:52:00,37.0,11.0,-100.00,WSW,246,6.0,9.0,33,-99.99,,,0.00,0.000000,,2013-04-02 11:52:00,
2013-04-02 06:02:00,37.0,11.0,-100.00,WSW,246,6.0,9.0,33,-99.99,,,0.00,0.000000,,2013-04-02 12:02:00,
2013-04-02 07:42:00,36.0,13.0,-100.00,SW,236,7.0,9.0,38,-99.99,,,0.00,2.000000,,2013-04-02 13:42:00,
2013-04-02 07:52:00,36.0,13.0,-100.00,SW,236,7.0,9.0,38,-99.99,,,0.00,2.000000,,2013-04-02 13:52:00,
2013-04-02 08:33:00,41.0,17.0,-100.00,West,261,5.0,8.0,37,-99.99,,,0.00,106.000000,,2013-04-02 14:33:00,
2013-04-02 09:33:00,46.0,21.0,-100.00,WNW,292,4.0,10.0,37,-99.99,,,0.00,325.000000,,2013-04-02 15:33:00,
2013-04-02 10:39:00,48.0,20.0,-100.00,West,261,6.0,10.0,32,0.00,,,-99.99,546.000000,,2013-04-02 16:39:00,
2013-04-02 10:44:00,48.0,20.0,-100.00,West,261,6.0,10.0,32,0.00,,,-99.99,546.000000,,2013-04-02 16:44:00,
2013-04-02 10:53:00,48.0,20.0,-100.00,West,261,6.0,10.0,32,0.00,,,-99.99,546.000000,,2013-04-02 16:53:00,
2013-04-02 11:03:00,48.0,20.0,-100.00,West,261,6.0,10.0,32,0.00,,,-99.99,546.000000,,2013-04-02 17:03:00,
2013-04-02 11:43:00,49.0,17.0,-100.00,WSW,247,9.0,16.0,28,0.00,,,0.00,694.000000,,2013-04-02 17:43:00,
2013-04-02 11:55:00,49.0,17.0,-100.00,WSW,247,9.0,16.0,28,0.00,,,0.00,694.000000,,2013-04-02 17:55:00,
2013-04-02 12:03:00,49.0,17.0,-100.00,WSW,247,9.0,16.0,28,0.00,,,0.00,694.000000,,2013-04-02 18:03:00,
2013-04-02 12:35:00,52.0,18.0,-100.00,SW,214,11.0,18.0,26,0.00,,,0.00,726.000000,,2013-04-02 18:35:00,
2013-04-02 12:43:00,52.0,18.0,-100.00,SW,214,11.0,18.0,26,0.00,,,0.00,726.000000,,2013-04-02 18:43:00,
2013-04-02 12:55:00,52.0,18.0,-100.00,SW,214,11.0,18.0,26,0.00,,,0.00,726.000000,,2013-04-02 18:55:00,
2013-04-02 13:02:00,52.0,18.0,-100.00,SW,214,11.0,18.0,26,0.00,,,0.00,726.000000,,2013-04-02 19:02:00,
2013-04-02 13:54:00,53.0,15.0,-100.00,SW,223,11.0,22.0,22,0.00,,,0.00,1050.000000,,2013-04-02 19:54:00,
2013-04-02 14:03:00,53.0,15.0,-100.00,SW,223,11.0,22.0,22,0.00,,,0.00,1050.000000,,2013-04-02 20:03:00,
2013-04-02 14:34:00,54.0,15.0,-100.00,WSW,246,9.0,18.0,21,0.00,,,0.00,641.000000,,2013-04-02 20:34:00,
2013-04-02 14:44:00,54.0,15.0,-100.00,WSW,246,9.0,18.0,21,0.00,,,0.00,641.000000,,2013-04-02 20:44:00,
2013-04-02 14:54:00,54.0,15.0,-100.00,WSW,246,9.0,18.0,21,0.00,,,0.00,641.000000,,2013-04-02 20:54:00,
2013-04-02 15:03:00,54.0,15.0,-100.00,WSW,246,9.0,18.0,21,0.00,,,0.00,641.000000,,2013-04-02 21:03:00,
2013-04-02 16:33:00,51.0,10.0,-100.00,WSW,246,10.0,22.0,19,-99.99,,,0.00,633.000000,,2013-04-02 22:33:00,
2013-04-02 16:44:00,51.0,10.0,-100.00,WSW,246,10.0,22.0,19,-99.99,,,0.00,633.000000,,2013-04-02 22:44:00,
2013-04-02 16:53:00,51.0,10.0,-100.00,WSW,246,10.0,22.0,19,-99.99,,,0.00,633.000000,,2013-04-02 22:53:00,
2013-04-02 17:02:00,51.0,10.0,-100.00,WSW,246,10.0,22.0,19,-99.99,,,0.00,633.000000,,2013-04-02 23:02:00,
2013-04-02 17:36:00,46.0,18.0,-100.00,WSW,248,11.0,26.0,32,0.00,,,0.00,249.000000,,2013-04-02 23:36:00,
2013-04-02 17:43:00,46.0,18.0,-100.00,WSW,248,11.0,26.0,32,0.00,,,0.00,249.000000,,2013-04-02 23:43:00,
2013-04-02 17:53:00,46.0,18.0,-100.00,WSW,248,11.0,26.0,32,0.00,,,0.00,249.000000,,2013-04-02 23:53:00,
2013-04-02 18:02:00,46.0,18.0,-100.00,WSW,248,11.0,26.0,32,0.00,,,0.00,249.000000,,2013-04-03 00:02:00,
2013-04-02 18:47:00,43.0,16.0,-100.00,West,267,8.0,19.0,33,0.00,,,-99.99,179.000000,,2013-04-03 00:47:00,
2013-04-02 18:55:00,43.0,16.0,-100.00,West,267,8.0,19.0,33,0.00,,,-99.99,179.000000,,2013-04-03 00:55:00,
2013-04-02 19:34:00,41.0,26.0,-100.00,West,259,8.0,21.0,54,0.00,,,0.00,64.000000,,2013-04-03 01:34:00,
2013-04-02 19:42:00,41.0,26.0,-100.00,West,259,8.0,21.0,54,0.00,,,0.00,64.000000,,2013-04-03 01:42:00,
2013-04-02 19:53:00,41.0,26.0,-100.00,West,259,8.0,21.0,54,0.00,,,0.00,64.000000,,2013-04-03 01:53:00,
2013-04-02 20:03:00,41.0,26.0,-100.00,West,259,8.0,21.0,54,0.00,,,0.00,64.000000,,2013-04-03 02:03:00,
2013-04-02 20:34:00,37.0,25.0,-100.00,West,262,5.0,14.0,61,0.00,,,0.00,6.000000,,2013-04-03 02:34:00,
2013-04-02 20:44:00,37.0,25.0,-100.00,West,262,5.0,14.0,61,0.00,,,0.00,6.000000,,2013-04-03 02:44:00,
2013-04-02 20:53:00,37.0,25.0,-100.00,West,262,5.0,14.0,61,0.00,,,0.00,6.000000,,2013-04-03 02:53:00,
2013-04-02 21:03:00,37.0,25.0,-100.00,West,262,5.0,14.0,61,0.00,,,0.00,6.000000,,2013-04-03 03:03:00,
2013-04-02 21:44:00,36.0,23.0,-100.00,NW,310,6.0,10.0,60,0.00,,,0.00,0.000000,,2013-04-03 03:44:00,
2013-04-02 21:54:00,36.0,23.0,-100.00,NW,310,6.0,10.0,60,0.00,,,0.00,0.000000,,2013-04-03 03:54:00,
2013-04-02 22:03:00,36.0,23.0,-100.00,NW,310,6.0,10.0,60,0.00,,,0.00,0.000000,,2013-04-03 04:03:00,
2013-04-02 22:33:00,36.0,24.0,-100.00,NW,315,6.0,10.0,62,0.00,,,0.00,0.000000,,2013-04-03 04:33:00,
2013-04-02 22:43:00,36.0,24.0,-100.00,NW,315,6.0,10.0,62,0.00,,,0.00,0.000000,,2013-04-03 04:43:00,
2013-04-02 22:53:00,36.0,24.0,-100.00,NW,315,6.0,10.0,62,0.00,,,0.00,0.000000,,2013-04-03 04:53:00,
2013-04-02 23:02:00,36.0,24.0,-100.00,NW,315,6.0,10.0,62,0.00,,,0.00,0.000000,,2013-04-03 05:02:00,
2013-04-02 23:42:00,34.0,23.0,-100.00,WNW,290,5.0,9.0,64,0.00,,,0.00,0.000000,,2013-04-03 05:42:00,
2013-04-02 23:52:00,34.0,23.0,-100.00,WNW,290,5.0,9.0,64,0.00,,,0.00,0.000000,,2013-04-03 05:52:00,